FBD777 URSS-URMM

Flight info

Callsign FBD777
Flight time 0h 52m
Altitude 23000
Route IRGID1D IRGID A944 GUBOR G487 ERSAR B967 ABELA ABELA5E
Aircraft B732/M-SDFGHRWY/S

Departure

Time 2026-04-20 13:24
Airport Sochi International Airport (URSS)

Arrival

Time 2026-04-20 14:16
Airport Mineralnye Vody Airport (URMM)
Time Latitude Longitude Altitude Speed Heading
2026-04-20 13:12 43.44408 39.93392 40 ft 0 kts
2026-04-20 13:16 43.44405 39.93391 40 ft 2 kts
2026-04-20 13:16 43.44390 39.93389 39 ft 2 kts
2026-04-20 13:17 43.44375 39.93386 39 ft 2 kts
2026-04-20 13:17 43.44361 39.93383 39 ft 2 kts
2026-04-20 13:17 43.44346 39.93377 38 ft 2 kts 40°
2026-04-20 13:17 43.44338 39.93361 38 ft 1 kts 70°
2026-04-20 13:18 43.44338 39.93359 38 ft 0 kts 71°
2026-04-20 13:19 43.44338 39.93360 38 ft 0 kts 70°
2026-04-20 13:19 43.44342 39.93373 38 ft 5 kts 64°
2026-04-20 13:20 43.44388 39.93505 40 ft 24 kts 65°
2026-04-20 13:20 43.44484 39.93787 45 ft 33 kts 63°
2026-04-20 13:20 43.44586 39.94094 50 ft 41 kts 66°
2026-04-20 13:20 43.44723 39.94486 56 ft 48 kts 65°
2026-04-20 13:21 43.44841 39.94832 58 ft 43 kts 66°
2026-04-20 13:21 43.44929 39.95088 61 ft 15 kts 65°
2026-04-20 13:21 43.44933 39.95159 61 ft 0 kts 128°
2026-04-20 13:22 43.44932 39.95160 61 ft 0 kts 128°
2026-04-20 13:22 43.44918 39.95177 61 ft 5 kts 150°
2026-04-20 13:23 43.44868 39.95208 62 ft 6 kts 169°
2026-04-20 13:23 43.44839 39.95178 61 ft 0 kts 244°
2026-04-20 13:23 43.44768 39.94974 58 ft 62 kts 244°
2026-04-20 13:23 43.44455 39.94060 48 ft 143 kts 245°
2026-04-20 13:24 43.43938 39.92558 289 ft 192 kts 244°
2026-04-20 13:24 43.43445 39.90639 903 ft 227 kts 258°
2026-04-20 13:24 43.43192 39.88364 1749 ft 251 kts 259°
2026-04-20 13:24 43.42895 39.86014 3052 ft 253 kts 258°
2026-04-20 13:25 43.42547 39.83632 4378 ft 253 kts 257°
2026-04-20 13:25 43.42179 39.81313 5778 ft 247 kts 256°
2026-04-20 13:25 43.41799 39.79037 6929 ft 248 kts 255°
2026-04-20 13:25 43.41397 39.76697 7936 ft 249 kts 255°
2026-04-20 13:26 43.40988 39.74365 8865 ft 247 kts 255°
2026-04-20 13:26 43.40577 39.72043 9638 ft 250 kts 255°
2026-04-20 13:26 43.40156 39.69693 10371 ft 254 kts 255°
2026-04-20 13:26 43.39731 39.67253 10965 ft 265 kts 260°
2026-04-20 13:27 43.39900 39.64686 11508 ft 278 kts 289°
2026-04-20 13:27 43.40993 39.62405 12215 ft 285 kts 316°
2026-04-20 13:27 43.42657 39.60902 12914 ft 290 kts 330°
2026-04-20 13:27 43.44506 39.59664 13575 ft 295 kts 333°
2026-04-20 13:28 43.46398 39.58508 14209 ft 299 kts 334°
2026-04-20 13:28 43.47028 39.58137 14416 ft 300 kts 335°
2026-04-20 13:29 43.54448 39.53977 16661 ft 314 kts 335°
2026-04-20 13:29 43.56484 39.52859 17228 ft 317 kts 335°
2026-04-20 13:29 43.58555 39.51723 17783 ft 320 kts 334°
2026-04-20 13:29 43.60640 39.50586 18326 ft 323 kts 336°
2026-04-20 13:30 43.62941 39.50094 18829 ft 335 kts
2026-04-20 13:30 43.65267 39.50538 19326 ft 341 kts 10°
2026-04-20 13:30 43.67616 39.51339 19809 ft 345 kts 14°
2026-04-20 13:30 43.69802 39.52753 20237 ft 352 kts 37°
2026-04-20 13:31 43.71492 39.55236 20657 ft 353 kts 60°
2026-04-20 13:31 43.72541 39.58306 21078 ft 354 kts 74°
2026-04-20 13:31 43.73263 39.61579 21506 ft 355 kts 79°
2026-04-20 13:31 43.73857 39.64955 21920 ft 359 kts 81°
2026-04-20 13:32 43.74393 39.68415 21946 ft 375 kts 82°
2026-04-20 13:32 43.74926 39.72080 22063 ft 388 kts 83°
2026-04-20 13:32 43.75446 39.75753 22509 ft 390 kts 83°
2026-04-20 13:32 43.75966 39.79479 22960 ft 391 kts 83°
2026-04-20 13:33 43.76479 39.83215 23061 ft 404 kts 83°
2026-04-20 13:33 43.77012 39.87115 23073 ft 418 kts 83°
2026-04-20 13:33 43.77568 39.91180 23073 ft 432 kts 83°
2026-04-20 13:33 43.78141 39.95391 23073 ft 446 kts 83°
2026-04-20 13:34 43.78721 39.99660 23066 ft 452 kts 82°
2026-04-20 13:34 43.79315 40.04039 23061 ft 455 kts 82°
2026-04-20 13:34 43.79901 40.08369 23060 ft 456 kts 82°
2026-04-20 13:34 43.80483 40.12697 23059 ft 456 kts 82°
2026-04-20 13:35 43.81071 40.17081 23059 ft 457 kts 82°
2026-04-20 13:35 43.81653 40.21425 23059 ft 457 kts 82°
2026-04-20 13:35 43.82236 40.25803 23060 ft 457 kts 83°
2026-04-20 13:35 43.82818 40.30177 23061 ft 457 kts 83°
2026-04-20 13:36 43.83393 40.34516 23061 ft 457 kts 83°
2026-04-20 13:36 43.83963 40.38835 23061 ft 457 kts 82°
2026-04-20 13:36 43.84537 40.43197 23061 ft 457 kts 82°
2026-04-20 13:36 43.85117 40.47613 23062 ft 457 kts 83°
2026-04-20 13:37 43.85683 40.51936 23062 ft 457 kts 83°
2026-04-20 13:37 43.86118 40.56334 23042 ft 453 kts 92°
2026-04-20 13:37 43.85709 40.60645 23065 ft 441 kts 111°
2026-04-20 13:37 43.84612 40.64583 23070 ft 439 kts 113°
2026-04-20 13:38 43.84094 40.68718 23055 ft 449 kts 96°
2026-04-20 13:38 43.84452 40.73081 23069 ft 455 kts 81°
2026-04-20 13:38 43.85189 40.77398 23061 ft 456 kts 79°
2026-04-20 13:38 43.85944 40.81726 23058 ft 456 kts 79°
2026-04-20 13:39 43.86758 40.85983 23040 ft 458 kts 72°
2026-04-20 13:39 43.88267 40.89865 23055 ft 459 kts 53°
2026-04-20 13:39 43.90501 40.93017 23064 ft 456 kts 37°
2026-04-20 13:39 43.93006 40.95683 23062 ft 456 kts 34°
2026-04-20 13:40 43.95460 40.98502 23041 ft 459 kts 44°
2026-04-20 13:40 43.97386 41.02052 23065 ft 461 kts 57°
2026-04-20 13:40 43.98898 41.06025 23060 ft 462 kts 63°
2026-04-20 13:40 44.00230 41.10068 23044 ft 463 kts 65°
2026-04-20 13:41 44.01526 41.14195 23030 ft 464 kts 66°
2026-04-20 13:41 44.02799 41.18317 23017 ft 465 kts 66°
2026-04-20 13:41 44.04066 41.22452 23003 ft 465 kts 66°
2026-04-20 13:41 44.05337 41.26609 22989 ft 466 kts 66°
2026-04-20 13:42 44.06608 41.30778 22978 ft 466 kts 66°
2026-04-20 13:42 44.09154 41.39145 22977 ft 466 kts 66°
2026-04-20 13:42 44.10424 41.43332 22976 ft 467 kts 66°
2026-04-20 13:43 44.11382 41.47679 22979 ft 466 kts 77°
2026-04-20 13:43 44.11955 41.52109 22975 ft 464 kts 82°
2026-04-20 13:43 44.12357 41.56589 22971 ft 459 kts 84°
2026-04-20 13:43 44.12692 41.60990 22969 ft 454 kts 85°
2026-04-20 13:44 44.13004 41.65382 22962 ft 446 kts 86°
2026-04-20 13:44 44.13298 41.69622 22826 ft 440 kts 86°
2026-04-20 13:44 44.13593 41.73922 22810 ft 429 kts 86°
2026-04-20 13:44 44.13868 41.77988 22784 ft 419 kts 86°
2026-04-20 13:45 44.14138 41.81995 22758 ft 408 kts 86°
2026-04-20 13:45 44.14399 41.85897 22628 ft 401 kts 86°
2026-04-20 13:45 44.14659 41.89810 22257 ft 402 kts 86°
2026-04-20 13:45 44.14923 41.93802 21458 ft 415 kts 86°
2026-04-20 13:46 44.15186 41.97787 20891 ft 420 kts 86°
2026-04-20 13:46 44.15452 42.01847 20205 ft 420 kts 86°
2026-04-20 13:46 44.15718 42.05924 19536 ft 416 kts 86°
2026-04-20 13:46 44.15982 42.09973 18900 ft 410 kts 86°
2026-04-20 13:47 44.16237 42.13917 18281 ft 404 kts 86°
2026-04-20 13:47 44.16485 42.17788 17669 ft 399 kts 85°
2026-04-20 13:47 44.16735 42.21701 17049 ft 393 kts 85°
2026-04-20 13:47 44.16975 42.25491 16442 ft 388 kts 85°
2026-04-20 13:48 44.17210 42.29214 15839 ft 383 kts 85°
2026-04-20 13:48 44.17443 42.32924 15007 ft 385 kts 85°
2026-04-20 13:48 44.17678 42.36682 14222 ft 378 kts 85°
2026-04-20 13:48 44.17903 42.40299 13356 ft 372 kts 85°
2026-04-20 13:49 44.18127 42.43919 12497 ft 366 kts 85°
2026-04-20 13:49 44.18339 42.47381 11679 ft 359 kts 85°
2026-04-20 13:49 44.18554 42.50883 10817 ft 350 kts 85°
2026-04-20 13:49 44.18753 42.54145 10533 ft 327 kts 85°
2026-04-20 13:50 44.18928 42.57261 9984 ft 317 kts 89°
2026-04-20 13:50 44.18635 42.60315 9215 ft 314 kts 103°
2026-04-20 13:50 44.18080 42.63264 8468 ft 312 kts 106°
2026-04-20 13:50 44.17479 42.66060 8331 ft 288 kts 108°
2026-04-20 13:51 44.16905 42.68589 7967 ft 279 kts 108°
2026-04-20 13:51 44.16295 42.71195 7420 ft 276 kts 109°
2026-04-20 13:51 44.15693 42.73720 7101 ft 268 kts 109°
2026-04-20 13:51 44.15105 42.76162 6788 ft 264 kts 109°
2026-04-20 13:52 44.14523 42.78567 6430 ft 262 kts 109°
2026-04-20 13:52 44.13936 42.80980 6171 ft 255 kts 109°
2026-04-20 13:52 44.13370 42.83302 5990 ft 247 kts 109°
2026-04-20 13:52 44.12808 42.85608 5668 ft 246 kts 109°
2026-04-20 13:53 44.12469 42.87910 5304 ft 245 kts 85°
2026-04-20 13:53 44.12691 42.90297 4967 ft 244 kts 86°
2026-04-20 13:53 44.12732 42.92633 4724 ft 238 kts 88°
2026-04-20 13:53 44.12779 42.94902 4716 ft 231 kts 88°
2026-04-20 13:54 44.12826 42.97158 4718 ft 232 kts 88°
2026-04-20 13:54 44.12838 42.99453 4723 ft 234 kts 89°
2026-04-20 13:54 44.12725 43.01721 4717 ft 236 kts 108°
2026-04-20 13:54 44.12007 43.03787 4749 ft 236 kts 121°
2026-04-20 13:55 44.11151 43.05798 4726 ft 239 kts 121°
2026-04-20 13:55 44.10280 43.07826 4732 ft 240 kts 121°
2026-04-20 13:55 44.09413 43.09846 4742 ft 243 kts 121°
2026-04-20 13:55 44.08538 43.11886 4757 ft 248 kts 121°
2026-04-20 13:56 44.07635 43.13995 4766 ft 251 kts 121°
2026-04-20 13:56 44.06728 43.16115 4776 ft 255 kts 121°
2026-04-20 13:56 44.05810 43.18260 4803 ft 258 kts 121°
2026-04-20 13:56 44.04894 43.20406 4884 ft 258 kts 121°
2026-04-20 13:57 44.03953 43.22613 4975 ft 258 kts 121°
2026-04-20 13:57 44.03038 43.24760 5079 ft 257 kts 121°
2026-04-20 13:57 44.02122 43.26912 5080 ft 256 kts 121°
2026-04-20 13:57 44.01500 43.29223 5076 ft 256 kts 94°
2026-04-20 13:58 44.01759 43.31692 4888 ft 263 kts 66°
2026-04-20 13:58 44.02870 43.33722 4684 ft 262 kts 37°
2026-04-20 13:58 44.04358 43.35160 4705 ft 255 kts 31°
2026-04-20 13:58 44.05949 43.36217 4637 ft 248 kts
2026-04-20 13:59 44.07665 43.36107 4261 ft 255 kts 340°
2026-04-20 13:59 44.09121 43.34763 4160 ft 248 kts 309°
2026-04-20 13:59 44.10106 43.32825 4147 ft 242 kts 302°
2026-04-20 13:59 44.11008 43.30848 4031 ft 241 kts 301°
2026-04-20 14:00 44.11903 43.28870 3899 ft 241 kts 301°
2026-04-20 14:00 44.12804 43.26873 3737 ft 240 kts 301°
2026-04-20 14:00 44.13688 43.24913 3565 ft 239 kts 301°
2026-04-20 14:00 44.14582 43.22926 3384 ft 236 kts 301°
2026-04-20 14:01 44.15457 43.20988 3135 ft 236 kts 303°
2026-04-20 14:01 44.16430 43.19030 2560 ft 250 kts 305°
2026-04-20 14:01 44.17472 43.17083 2196 ft 247 kts 307°
2026-04-20 14:01 44.17909 43.16289 2067 ft 243 kts 307°
2026-04-20 14:02 44.18650 43.15060 1784 ft 240 kts 315°
2026-04-20 14:02 44.19844 43.13502 1554 ft 227 kts 315°
2026-04-20 14:02 44.20918 43.11905 1562 ft 229 kts 313°
2026-04-20 14:02 44.21935 43.09981 2073 ft 259 kts 305°
2026-04-20 14:03 44.22895 43.07755 3066 ft 277 kts 302°
2026-04-20 14:03 44.23936 43.05220 2954 ft 309 kts 301°
2026-04-20 14:03 44.24981 43.02669 2974 ft 299 kts 301°
2026-04-20 14:03 44.26003 43.00171 2935 ft 286 kts 302°
2026-04-20 14:04 44.26986 42.97760 2935 ft 273 kts 301°
2026-04-20 14:04 44.28055 42.95647 2923 ft 257 kts 321°
2026-04-20 14:04 44.29572 42.94563 2943 ft 238 kts 352°
2026-04-20 14:04 44.31171 42.94738 2929 ft 226 kts 23°
2026-04-20 14:05 44.32573 42.95752 2951 ft 221 kts 31°
2026-04-20 14:05 44.33884 42.96833 2943 ft 218 kts 31°
2026-04-20 14:05 44.35208 42.97934 2944 ft 215 kts 31°
2026-04-20 14:05 44.36370 42.99194 2938 ft 210 kts 55°
2026-04-20 14:06 44.36817 43.01110 2964 ft 208 kts 90°
2026-04-20 14:06 44.36396 43.03014 2973 ft 210 kts 118°
2026-04-20 14:06 44.35586 43.04781 2954 ft 212 kts 121°
2026-04-20 14:06 44.34775 43.06459 2950 ft 213 kts 121°
2026-04-20 14:07 44.33928 43.08205 2949 ft 213 kts 121°
2026-04-20 14:07 44.33102 43.09908 2949 ft 214 kts 121°
2026-04-20 14:07 44.32258 43.11650 2949 ft 214 kts 121°
2026-04-20 14:07 44.31417 43.13383 2949 ft 214 kts 121°
2026-04-20 14:08 44.30574 43.15123 2948 ft 215 kts 121°
2026-04-20 14:08 44.29734 43.16855 2948 ft 215 kts 121°
2026-04-20 14:08 44.28886 43.18603 2948 ft 215 kts 121°
2026-04-20 14:08 44.28051 43.20325 2948 ft 215 kts 121°
2026-04-20 14:09 44.27197 43.22087 2948 ft 216 kts 121°
2026-04-20 14:09 44.26355 43.23825 2948 ft 216 kts 121°
2026-04-20 14:09 44.25508 43.25570 2948 ft 216 kts 121°
2026-04-20 14:09 44.24655 43.27331 2948 ft 217 kts 121°
2026-04-20 14:10 44.23806 43.29083 2948 ft 217 kts 121°
2026-04-20 14:10 44.22959 43.30829 2948 ft 217 kts 121°
2026-04-20 14:10 44.22098 43.32605 2948 ft 218 kts 121°
2026-04-20 14:10 44.21252 43.34352 2948 ft 217 kts 121°
2026-04-20 14:11 44.20406 43.36095 2943 ft 214 kts 121°
2026-04-20 14:11 44.19318 43.37494 2946 ft 215 kts 154°
2026-04-20 14:11 44.17849 43.37752 2962 ft 214 kts 191°
2026-04-20 14:11 44.16479 43.36900 2965 ft 211 kts 210°
2026-04-20 14:12 44.15251 43.35834 2944 ft 209 kts 211°
2026-04-20 14:12 44.14108 43.34568 2935 ft 205 kts 235°
2026-04-20 14:12 44.13672 43.32754 2962 ft 195 kts 275°
2026-04-20 14:12 44.14049 43.30987 2967 ft 186 kts 299°
2026-04-20 14:13 44.14588 43.29361 2941 ft 184 kts 293°
2026-04-20 14:13 44.15031 43.27685 2938 ft 180 kts 292°
2026-04-20 14:13 44.15451 43.26052 2929 ft 175 kts 292°
2026-04-20 14:13 44.15844 43.24441 2954 ft 177 kts 291°
2026-04-20 14:14 44.16314 43.22791 2964 ft 183 kts 298°
2026-04-20 14:14 44.16914 43.21165 2864 ft 197 kts 302°
2026-04-20 14:14 44.17645 43.19431 2609 ft 211 kts 304°
2026-04-20 14:14 44.18426 43.17672 2307 ft 210 kts 304°
2026-04-20 14:15 44.19195 43.15971 2017 ft 206 kts 305°
2026-04-20 14:15 44.19952 43.14303 1736 ft 197 kts 305°
2026-04-20 14:15 44.20672 43.12723 1462 ft 187 kts 306°
2026-04-20 14:15 44.21361 43.11220 1237 ft 180 kts 306°
2026-04-20 14:16 44.22017 43.09770 1056 ft 167 kts 304°
2026-04-20 14:16 44.22556 43.08584 1056 ft 123 kts 303°
2026-04-20 14:16 44.22901 43.07820 1056 ft 43 kts 302°
2026-04-20 14:16 44.23009 43.07513 1056 ft 36 kts 282°
2026-04-20 14:17 44.23023 43.07213 1056 ft 5 kts 271°
2026-04-20 14:17 44.23023 43.07212 1056 ft 0 kts 271°
2026-04-20 14:18 44.23023 43.07211 1056 ft 1 kts 271°
2026-04-20 14:18 44.23025 43.07145 1056 ft 13 kts 273°
2026-04-20 14:18 44.22985 43.07059 1056 ft 16 kts 182°
2026-04-20 14:18 44.22859 43.07095 1056 ft 17 kts 168°
2026-04-20 14:19 44.22701 43.07143 1056 ft 22 kts 162°
2026-04-20 14:19 44.22585 43.07335 1056 ft 23 kts 123°
2026-04-20 14:19 44.22480 43.07568 1056 ft 22 kts 122°
2026-04-20 14:19 44.22418 43.07704 1056 ft 21 kts 122°
2026-04-20 14:20 44.22349 43.07856 1056 ft 21 kts 122°
2026-04-20 14:20 44.22280 43.08008 1056 ft 13 kts 122°
2026-04-20 14:20 44.22237 43.08105 1056 ft 2 kts 122°
2026-04-20 14:20 44.22230 43.08119 1056 ft 6 kts 122°
2026-04-20 14:21 44.22171 43.08096 1056 ft 0 kts 211°